Volver al catálogo

PHASMA-LAMARR

ActivoMeteoSSO
NORAD 66759·PAYLOAD·🇺🇸 United States
Este nombre de satélite aún no ha sido confirmado por fuentes oficiales.

Lanzado Nov 28, 2025 desde Vandenberg Space Force Base

Loading…

Próximos Pases (próximas 24 horas)

TLE

ActualizadoSource: Space-Track

Época: Sep 14, 2026, 11:04 UTC

1 66759U 25276CX  26257.46122813  .00004640  00000-0  20705-3 0  9995
2 66759  97.4093 329.8671 0001616  47.6556 312.4817 15.21867585 44013

Sigue PHASMA-LAMARR en tiempo real con AllMySat

Download on the App Store